Tracking 25953 objects as of 15-Aug-2022
HD Live streaming from Space Station
objects crossing your sky now

CZ-4B R/B

Track CZ-4B R/B now!
10-day predictions


NORAD ID: 46481
Int'l Code: 2020-067D
Perigee: 430.8 km
Apogee: 638.8 km
Inclination: 97.9 °
Period: 95.2 minutes
Semi major axis: 6905 km
RCS: Unknown
Launch date: September 27, 2020
Source: People's Republic of China (PRC)
Launch site: Taiyaun Space Center, China (TSC)

Note: This is a ROCKET BODY
aabbcc
Your satellite tracking list
Your tracking list is empty




NASA's NSSDC Master Catalog

Two Line Element Set (TLE):
1 46481U 20067D   22227.40222602  .00007272  00000-0  31684-3 0  9994
2 46481  97.9474 338.7813 0150632 202.2095 157.2566 15.12797530103708
Source of the keplerian elements: AFSPC